Weather Roundup
Issued by NWS

Home | Current Version | Previous Version | Graphics & Text | Print | Product List | Glossary Off
Versions: 1 2 3 4 5 6 7 8 9 10 11 12 13 14 15 16 17 18 19 20 21 22 23 24 25 26 27 28 29 30 31 32 33 34 35 36 37 38 39 40 41 42 43 44 45 46 47 48 49 50

000
NZUS93 KARX 280459
HRRWXR

CURRENT HOURLY OBSERVATIONS ACROSS
MUCH OF THE UPPER MISSISSIPPI VALLEY
NATIONAL WEATHER SERVICE LA CROSSE WI
1100 PM CST SAT DEC 27 2014


...SOUTHEAST MINNESOTA...


CITY           SKY/WX    TMP DP  RH WIND       PRES   REMARKS
ROCHESTER      CLEAR      7   3  84 SW14      30.11F WCI -10
ROCHESTER/MAYO FAIR      13   8  79 W5        30.12S WCI   6
WINONA         CLEAR     14   9  79 CALM      30.17F
AUSTIN         PTCLDY     9   5  85 SW6       30.13S WCI  -1
ALBERT LEA     CLEAR     12   9  85 SW5       30.13F WCI   4
DODGE CENTER   PTCLDY     9   5  85 SW9       30.10S WCI  -5
PRESTON        PTCLDY    10   6  85 SW8       30.12F WCI  -2
OWATONNA       CLEAR      9   5  85 SW5       30.13R WCI   0
FARIBAULT      CLEAR      9   5  85 S3        30.13S
$$

...ELSEWHERE IN MINNESOTA...


CITY           SKY/WX    TMP DP  RH WIND       PRES   REMARKS
MINNEAPOLIS    PTCLDY    11   6  81 SW6       30.12S WCI   1
INTNL FALLS    CLOUDY    11   5  77 NW10      30.00R WCI  -3
DULUTH         MOCLDY    17   6  62 W7        29.97S WCI   8
RED WING       PTCLDY     3   1  92 CALM      30.13S
REDWOOD FALLS  CLEAR     11   6  81 SW7       30.11F WCI   0
MANKATO        CLEAR     10   3  72 S3        30.13S
WORTHINGTON    CLEAR      9 N/A N/A SW7       30.11F WCI  -3
FAIRMONT       CLEAR     12   7  79 W10       30.12F WCI  -1
$$

...SOUTHWEST WISCONSIN...


CITY           SKY/WX    TMP DP  RH WIND       PRES   REMARKS
LA CROSSE      CLEAR     17   9  70 SW3       30.16F
PRAIRIE DU CHI CLEAR     20  12  72 W5        30.18S WCI  13
BOSCOBEL       CLEAR     21  14  74 W5        30.17S WCI  15
LONE ROCK      NOT AVBL
PLATTEVILLE    PTCLDY    21  18  88 CALM      30.16R
FORT MC COY    PTCLDY    19  16  85 W8        30.14S WCI   9
VIROQUA        FAIR      17  16  94 W8        30.11S WCI   7
WIS DELLS      NOT AVBL
$$

...ELSEWHERE IN WISCONSIN...


CITY           SKY/WX    TMP DP  RH WIND       PRES   REMARKS
MILWAUKEE      CLOUDY    31  22  69 W13       30.09R WCI  21
MADISON        MOCLDY    27  19  72 W7        30.12R WCI  19
GREEN BAY      CLOUDY    28  21  75 W13       30.07R WCI  17
EAU CLAIRE     NOT AVBL
BLACK RVR FLS  FAIR      17  13  87 SW5       30.13R WCI  10
MEDFORD        MOCLDY    12  10  93 SW6       30.03S WCI   2
WAUSAU         PTCLDY    16  13  88 SW9       30.04S WCI   4
WIS RAPIDS     CLEAR     20  15  81 VRB7      30.10S WCI  11
MARSHFIELD     CLEAR     16  12  84 W9        30.06R WCI   4
RICE LAKE      CLEAR     14   9  81 W7        30.09R WCI   4
$$

...NORTHEAST IOWA...


CITY           SKY/WX    TMP DP  RH WIND       PRES   REMARKS
DECORAH        CLEAR     16  10  79 W3        30.14S
MASON CITY     FAIR      12   8  84 W12       30.17S WCI  -2
CHARLES CITY   CLEAR     14  12  92 W9        30.17S WCI   2
OELWEIN        CLEAR     18  14  86 W9        30.17S WCI   6
$$

...ELSEWHERE IN IOWA...


CITY           SKY/WX    TMP DP  RH WIND       PRES   REMARKS
DES MOINES     CLEAR     20  16  84 W6        30.23S WCI  12
IOWA CITY      CLEAR     20  16  84 W5        30.23S WCI  13
FORT DODGE     CLEAR     12   7  79 W5        30.20R WCI   4
$$

...NORTHERN ILLINOIS...


CITY           SKY/WX    TMP DP  RH WIND       PRES   REMARKS
CHICAGO-OHARE  CLOUDY    31  24  75 W10       30.10F WCI  22
CHICAGO-MIDWAY CLOUDY    34  26  72 NW12      30.11S WCI  25
MOLINE         CLEAR     25  19  78 NW15      30.19F WCI  13
ROCKFORD       CLOUDY    29  22  75 W10       30.15S WCI  20
PEORIA         CLOUDY    31  22  69 W9        30.19S WCI  23
$$

NOTE: "FAIR" INDICATES FEW OR NO CLOUDS BELOW 12,000 FEET WITH NO
SIGNIFICANT WEATHER AND/OR OBSTRUCTIONS TO VISIBILITY. WIND
SPEEDS ARE IN MILES-PER-HOUR.



USA.gov is the U.S. government's official web portal to all federal, state and local government web resources and services.